Weather History for Van Nuys, CA

Change the Weather History Date:

Monday, May 12, 2014

  Actual Average Record
Temperature  
Mean Temperature 78 °F -  
Max Temperature 91 °F 75 °F 105 °F (2013)
Min Temperature 64 °F 53 °F 50 °F (2002)
Cooling Degree Days 12    
Growing Degree Days 28 (Base 50)    
Moisture  
Dew Point 17 °F    
Average Humidity 11    
Maximum Humidity 21    
Minimum Humidity 4    
Precipitation  
Precipitation 0.00 in - - ()
Sea Level Pressure  
Sea Level Pressure 29.97 in    
Wind  
Wind Speed 8 mph (NNW)    
Max Wind Speed 17 mph    
Max Gust Speed 26 mph    
Visibility 10 miles    
Events      
Averages and records for this station are not official NWS values.
T = Trace of Precipitation, MM = Missing Value Source: NWS Daily Summary

Daily Weather History Graph

Daily Weather History Graph

Search for Another Location

Airport:

Trip Planner

Search our weather history database for the weather conditions in past years. The results will help you decide how hot, cold, wet, or windy it might be!

Date:

Astronomy

May. 12, 2014 Rise Set
Actual Time 5:54 AM PDT 7:46 PM PDT
Civil Twilight 5:26 AM PDT 8:14 PM PDT
Nautical Twilight 4:53 AM PDT 8:47 PM PDT
Astronomical Twilight 4:18 AM PDT 9:23 PM PDT
Moon 5:54 PM PDT (5/12) 4:29 AM PDT (5/12)
Length of Visible Light 14h 47m
Length of Day
13h 52m
Waxing Gibbous, 95% of the Moon is Illuminated
May 12
Waxing Gibbous
May 14
Full
May 21
Last Quarter
May 28
New
Jun 5
First Quarter

Hourly Weather History & Observations

Time (PDT) Temp. Dew Point Humidity Pressure Visibility Wind Dir Wind Speed Gust Speed Precip Events Conditions
12:51 AM 64.9 °F 24.1 °F 21% 29.97 in 10.0 mi North 6.9 mph - N/A   Clear
1:51 AM 68.0 °F 19.0 °F 15% 29.96 in 10.0 mi North 11.5 mph - N/A   Clear
2:51 AM 66.9 °F 21.0 °F 17% 29.96 in 10.0 mi North 11.5 mph - N/A   Clear
3:51 AM 66.0 °F 19.9 °F 17% 29.96 in 10.0 mi North 9.2 mph - N/A   Clear
4:51 AM 64.9 °F 19.0 °F 17% 29.96 in 10.0 mi North 8.1 mph - N/A   Clear
5:51 AM 64.9 °F 19.0 °F 17% 29.97 in 10.0 mi Calm Calm - N/A   Clear
6:51 AM 68.0 °F 19.0 °F 15% 29.99 in 10.0 mi NNW 4.6 mph - N/A   Clear
7:51 AM 73.0 °F 19.9 °F 14% 30.01 in 10.0 mi WNW 4.6 mph - N/A   Clear
8:51 AM 80.1 °F 17.1 °F 9% 30.01 in 10.0 mi Calm Calm - N/A   Clear
9:51 AM 82.0 °F 14.0 °F 8% 30.01 in 10.0 mi Variable 6.9 mph - N/A   Clear
10:51 AM 82.9 °F 15.1 °F 8% 30.01 in 10.0 mi Calm Calm - N/A   Clear
11:51 AM 88.0 °F 15.1 °F 7% 30.00 in 10.0 mi NNE 11.5 mph 17.3 mph N/A   Clear
12:51 PM 88.0 °F 12.0 °F 6% 29.99 in 10.0 mi North 9.2 mph - N/A   Clear
1:51 PM 91.0 °F 10.0 °F 5% 29.96 in 10.0 mi NE 16.1 mph 25.3 mph N/A   Clear
2:51 PM 90.0 °F 9.0 °F 5% 29.95 in 10.0 mi NNE 6.9 mph 21.9 mph N/A   Clear
3:51 PM 90.0 °F 7.0 °F 4% 29.93 in 10.0 mi North 17.3 mph 26.5 mph N/A   Clear
4:51 PM 90.0 °F 7.0 °F 4% 29.92 in 10.0 mi North 11.5 mph 21.9 mph N/A   Clear
5:51 PM 86.0 °F 17.1 °F 8% 29.92 in 10.0 mi WNW 9.2 mph 21.9 mph N/A   Clear
6:51 PM 82.9 °F 17.1 °F 9% 29.93 in 10.0 mi West 11.5 mph 19.6 mph N/A   Clear
7:51 PM 78.1 °F 19.0 °F 11% 29.95 in 10.0 mi West 8.1 mph - N/A   Clear
8:51 PM 75.9 °F 19.9 °F 12% 29.96 in 10.0 mi West 5.8 mph - N/A   Clear
9:51 PM 73.0 °F 19.0 °F 13% 29.98 in 10.0 mi West 4.6 mph - N/A   Clear
10:51 PM 71.1 °F 21.0 °F 15% 29.99 in 10.0 mi Calm Calm - N/A   Clear
11:51 PM 71.1 °F 21.9 °F 16% 29.99 in 10.0 mi Calm Calm - N/A   Clear